• în Republica Moldova
  • Lista ţărilor
  • Pe 7 zile
  • Temperatura apei
  • Hartă satelitară
  • Meteo pe hartă
  • Widget-uri
  • user-avatar
    Intrare

    Meteo pe oră la Mingachevir

    Astăzi, 21 Octombrie, Sâmbătă

    Timp Temperatura Precipitaţii Vânt Presiune Umiditate
    00:00 +18°C° 0 mm 1 m/s 755 mmHg 63%
    01:00 +16°C° 0 mm 1 m/s 755 mmHg 65%
    02:00 +16°C° 0 mm 1 m/s 755 mmHg 67%
    03:00 +15°C° 0 mm 1 m/s 755 mmHg 69%
    04:00 +15°C° 0 mm 1 m/s 755 mmHg 70%
    05:00 +15°C° 0 mm 1 m/s 755 mmHg 71%
    06:00 +14°C° 0 mm 0 m/s 755 mmHg 71%
    07:00 +15°C° 0 mm 0 m/s 755 mmHg 67%
    08:00 +18°C° 0 mm 1 m/s 755 mmHg 63%
    09:00 +20°C° 0 mm 1 m/s 754 mmHg 58%
    10:00 +21°C° 0 mm 1 m/s 754 mmHg 54%
    11:00 +22°C° 0 mm 1 m/s 754 mmHg 50%
    12:00 +23°C° 0 mm 1 m/s 753 mmHg 46%
    13:00 +23°C° 0 mm 1 m/s 753 mmHg 45%
    14:00 +24°C° 0 mm 1 m/s 752 mmHg 44%
    15:00 +24°C° 0 mm 1 m/s 752 mmHg 43%
    16:00 +23°C° 0 mm 1 m/s 752 mmHg 47%
    17:00 +22°C° 0 mm 1 m/s 752 mmHg 51%
    18:00 +18°C° 0 mm 0 m/s 752 mmHg 55%
    19:00 +20°C° 0 mm 1 m/s 752 mmHg 57%
    20:00 +20°C° 0 mm 1 m/s 752 mmHg 58%
    21:00 +19°C° 0 mm 1 m/s 752 mmHg 59%
    22:00 +19°C° 0 mm 1 m/s 752 mmHg 59%
    23:00 +18°C° 0 mm 1 m/s 752 mmHg 60%

    Mâine, 22 Octombrie, Duminică

    Timp Temperatura Precipitaţii Vânt Presiune Umiditate
    00:00 +18°C° 0 mm 1 m/s 752 mmHg 60%
    01:00 +16°C° 0 mm 1 m/s 752 mmHg 60%
    02:00 +16°C° 0 mm 1 m/s 752 mmHg 60%
    03:00 +16°C° 0 mm 1 m/s 752 mmHg 59%
    04:00 +16°C° 0 mm 1 m/s 751 mmHg 58%
    05:00 +15°C° 0 mm 1 m/s 751 mmHg 56%
    06:00 +15°C° 0 mm 2 m/s 751 mmHg 55%
    07:00 +17°C° 0 mm 2 m/s 751 mmHg 49%
    08:00 +18°C° 0 mm 2 m/s 751 mmHg 44%
    09:00 +20°C° 0 mm 2 m/s 751 mmHg 38%
    10:00 +21°C° 0 mm 3 m/s 750 mmHg 36%
    11:00 +22°C° 0 mm 3 m/s 750 mmHg 34%
    12:00 +24°C° 0 mm 3 m/s 749 mmHg 32%
    13:00 +23°C° 0 mm 4 m/s 749 mmHg 32%
    14:00 +23°C° 0 mm 4 m/s 748 mmHg 32%
    15:00 +23°C° 0 mm 4 m/s 748 mmHg 32%
    16:00 +22°C° 0 mm 3 m/s 748 mmHg 34%
    17:00 +20°C° 0 mm 3 m/s 748 mmHg 37%
    18:00 +19°C° 0 mm 2 m/s 748 mmHg 39%
    19:00 +19°C° 0 mm 3 m/s 749 mmHg 39%
    20:00 +18°C° 0 mm 3 m/s 749 mmHg 39%
    21:00 +18°C° 0 mm 3 m/s 749 mmHg 39%
    22:00 +18°C° 0 mm 3 m/s 749 mmHg 38%
    23:00 +17°C° 0 mm 3 m/s 749 mmHg 38%

    Poimâine, 23 Octombrie, Luni

    Timp Temperatura Precipitaţii Vânt Presiune Umiditate
    00:00 +17°C° 0 mm 4 m/s 749 mmHg 38%
    01:00 +17°C° 0 mm 4 m/s 749 mmHg 37%
    02:00 +17°C° 0 mm 4 m/s 749 mmHg 36%
    03:00 +16°C° 0 mm 5 m/s 749 mmHg 36%
    04:00 +15°C° 0 mm 5 m/s 750 mmHg 37%
    05:00 +15°C° 0 mm 5 m/s 750 mmHg 38%
    06:00 +15°C° 0 mm 5 m/s 750 mmHg 39%
    07:00 +16°C° 0 mm 5 m/s 751 mmHg 38%
    08:00 +19°C° 0 mm 5 m/s 751 mmHg 36%
    09:00 +20°C° 0 mm 5 m/s 752 mmHg 35%
    10:00 +21°C° 0 mm 5 m/s 752 mmHg 33%
    11:00 +22°C° 0 mm 4 m/s 752 mmHg 32%
    12:00 +23°C° 0 mm 4 m/s 752 mmHg 30%
    13:00 +24°C° 0 mm 3 m/s 752 mmHg 30%
    14:00 +24°C° 0 mm 2 m/s 752 mmHg 30%
    15:00 +24°C° 0 mm 2 m/s 752 mmHg 30%
    16:00 +23°C° 0 mm 2 m/s 753 mmHg 34%
    17:00 +21°C° 0 mm 2 m/s 753 mmHg 39%
    18:00 +19°C° 0 mm 3 m/s 754 mmHg 43%
    19:00 +18°C° 0 mm 4 m/s 754 mmHg 52%
    20:00 +17°C° 0 mm 4 m/s 754 mmHg 60%
    21:00 +15°C° 0 mm 5 m/s 755 mmHg 69%
    22:00 +15°C° 0 mm 4 m/s 755 mmHg 71%
    23:00 +15°C° 0 mm 4 m/s 755 mmHg 73%

    24 Octombrie, Marţi

    Timp Temperatura Precipitaţii Vânt Presiune Umiditate
    00:00 +15°C° 0 mm 4 m/s 755 mmHg 75%
    01:00 +16°C° 0 mm 3 m/s 755 mmHg 74%
    02:00 +14°C° 0 mm 3 m/s 755 mmHg 74%
    03:00 +15°C° 0 mm 2 m/s 755 mmHg 74%
    04:00 +15°C° 0 mm 2 m/s 755 mmHg 74%
    05:00 +15°C° 0 mm 1 m/s 755 mmHg 75%
    06:00 +15°C° 0 mm 1 m/s 755 mmHg 76%
    07:00 +15°C° 0 mm 1 m/s 755 mmHg 73%
    08:00 +16°C° 0 mm 1 m/s 755 mmHg 70%
    09:00 +16°C° 0 mm 1 m/s 755 mmHg 67%
    10:00 +18°C° 0 mm 1 m/s 755 mmHg 64%
    11:00 +19°C° 0 mm 1 m/s 754 mmHg 61%
    12:00 +20°C° 0 mm 1 m/s 754 mmHg 59%
    13:00 +20°C° 0 mm 1 m/s 754 mmHg 57%
    14:00 +21°C° 0 mm 1 m/s 754 mmHg 56%
    15:00 +21°C° 0 mm 1 m/s 753 mmHg 55%
    16:00 +20°C° 0 mm 1 m/s 754 mmHg 59%
    17:00 +19°C° 0 mm 1 m/s 754 mmHg 63%
    18:00 +18°C° 0 mm 1 m/s 755 mmHg 67%
    19:00 +18°C° 0 mm 1 m/s 755 mmHg 69%
    20:00 +17°C° 0 mm 2 m/s 756 mmHg 70%
    21:00 +16°C° 0 mm 2 m/s 756 mmHg 72%
    22:00 +16°C° 0 mm 2 m/s 756 mmHg 74%
    23:00 +16°C° 0 mm 2 m/s 756 mmHg 76%

    25 Octombrie, Miercuri

    Timp Temperatura Precipitaţii Vânt Presiune Umiditate
    00:00 +15°C° 0 mm 1 m/s 756 mmHg 78%
    01:00 +15°C° 0 mm 1 m/s 756 mmHg 79%
    02:00 +15°C° 0 mm 1 m/s 756 mmHg 80%
    03:00 +15°C° 0 mm 1 m/s 757 mmHg 81%
    04:00 +15°C° 0 mm 1 m/s 757 mmHg 81%
    05:00 +13°C° 0 mm 0 m/s 757 mmHg 82%
    06:00 +13°C° 0 mm 0 m/s 757 mmHg 83%
    07:00 +15°C° 0 mm 1 m/s 757 mmHg 79%
    08:00 +16°C° 0 mm 1 m/s 757 mmHg 76%
    09:00 +18°C° 0 mm 1 m/s 757 mmHg 73%
    10:00 +19°C° 0 mm 1 m/s 757 mmHg 68%
    11:00 +20°C° 0 mm 1 m/s 757 mmHg 64%
    12:00 +20°C° 0 mm 2 m/s 756 mmHg 60%
    13:00 +20°C° 0 mm 2 m/s 756 mmHg 59%
    14:00 +21°C° 0 mm 2 m/s 756 mmHg 58%
    15:00 +21°C° 0 mm 2 m/s 756 mmHg 56%
    16:00 +20°C° 0 mm 2 m/s 756 mmHg 61%
    17:00 +19°C° 0 mm 2 m/s 757 mmHg 67%
    18:00 +18°C° 0 mm 2 m/s 757 mmHg 72%
    19:00 +18°C° 0 mm 2 m/s 757 mmHg 74%
    20:00 +17°C° 0 mm 2 m/s 758 mmHg 75%
    21:00 +17°C° 0 mm 3 m/s 758 mmHg 77%
    22:00 +17°C° 0 mm 2 m/s 758 mmHg 78%
    23:00 +16°C° 0 mm 2 m/s 758 mmHg 80%

    26 Octombrie, Joi

    Timp Temperatura Precipitaţii Vânt Presiune Umiditate
    00:00 +16°C° 0 mm 2 m/s 758 mmHg 81%
    01:00 +16°C° 0 mm 1 m/s 758 mmHg 82%
    02:00 +15°C° 0 mm 1 m/s 758 mmHg 83%
    03:00 +15°C° 0 mm 1 m/s 758 mmHg 84%
    04:00 +14°C° 0 mm 0 m/s 758 mmHg 84%
    05:00 +14°C° 0 mm 0 m/s 757 mmHg 85%
    06:00 +13°C° 0 mm 0 m/s 757 mmHg 85%
    07:00 +14°C° 0 mm 0 m/s 757 mmHg 81%
    08:00 +18°C° 0 mm 1 m/s 757 mmHg 76%
    09:00 +19°C° 0 mm 1 m/s 757 mmHg 72%
    10:00 +20°C° 0 mm 1 m/s 756 mmHg 68%
    11:00 +21°C° 0 mm 1 m/s 755 mmHg 64%
    12:00 +22°C° 0 mm 1 m/s 755 mmHg 60%
    13:00 +22°C° 0 mm 1 m/s 754 mmHg 58%
    14:00 +22°C° 0 mm 1 m/s 754 mmHg 56%
    15:00 +23°C° 0 mm 1 m/s 753 mmHg 54%
    16:00 +22°C° 0 mm 1 m/s 753 mmHg 58%
    17:00 +21°C° 0 mm 1 m/s 753 mmHg 62%
    18:00 +20°C° 0 mm 1 m/s 753 mmHg 66%
    19:00 +20°C° 0 mm 1 m/s 753 mmHg 67%
    20:00 +19°C° 0 mm 1 m/s 753 mmHg 68%
    21:00 +19°C° 0 mm 1 m/s 753 mmHg 69%
    22:00 +18°C° 0 mm 1 m/s 752 mmHg 69%
    23:00 +18°C° 0 mm 1 m/s 752 mmHg 70%
    Arată mai mult